Dewpoint
69 69 70 73 72 72 72 72 72 72 72 72 72 73 73 73 73 73 73 73 73 73 73 73 72 72 72 71 71 71 71 70 70 70 69 69 69 69 68 68 68 68 68 68 68 66 66 66 68 66 66 67 66 66 66 66 65 65 65 65 64 63 63 64 66 68 67 68 67 67 67 67 67 67 68 68 68 68 68 68 68 66 68 68 69
69 70 70 71 72 72 73 72 72 72 72 71 72 72 73 73 72 73 73 73 73 72 72 72 72 71 71 71 71 70 70 70 70 70 69 69 69 68 68 68 68 68 67 67 67 67 67 68 67 67 68 67 66 66 68 68 67 66 65 64 64 63 63 66 66 67 67 67 67 67 66 66 66 67 67 68 68 68 68 68 68 66 67 68 69
69 70 69 70 72 72 72 72 72 72 72 72 72 72 72 72 72 72 72 72 72 72 72 72 72 72 71 71 70 70 70 70 70 70 69 69 69 69 69 68 67 67 67 68 68 69 69 68 68 67 67 67 67 67 67 67 67 67 67 66 66 65 65 66 66 66 66 66 67 67 67 67 67 67 67 67 67 67 67 68 68 68 68 69 68
69 69 69 71 72 72 72 72 72 72 72 72 71 71 72 72 72 72 72 72 72 72 72 72 72 72 71 71 70 70 70 70 70 69 69 69 69 69 68 67 68 68 68 69 69 69 68 68 68 69 68 68 68 68 68 68 67 66 66 65 64 64 65 66 67 66 65 65 65 64 64 63 63 66 66 66 67 67 67 67 67 68 68 68 68
69 69 69 70 71 72 72 72 72 72 71 71 71 71 71 71 71 71 71 72 71 72 71 71 71 71 70 70 70 70 70 70 70 69 70 70 69 68 68 69 69 69 69 69 69 69 69 70 69 69 69 69 69 69 68 68 68 67 66 66 65 64 65 66 67 66 66 65 65 64 60 59 62 64 65 66 65 65 65 65 67 67 67 67 67
69 69 69 69 69 71 72 72 72 72 72 71 71 70 71 71 71 72 72 72 72 71 71 71 71 71 71 71 70 70 70 70 70 70 70 70 70 69 69 69 68 69 69 70 71 71 70 70 70 70 69 69 69 69 69 69 69 68 67 66 66 65 66 66 66 66 66 64 63 60 58 58 58 60 64 64 64 64 65 66 66 66 67 66 66
69 69 69 68 69 71 72 72 72 72 71 71 70 70 70 71 71 72 71 71 71 71 71 71 71 71 71 71 71 71 71 71 70 70 70 71 71 70 69 69 68 69 70 70 70 70 70 70 70 70 70 69 69 69 68 69 69 69 68 67 66 65 66 66 66 65 64 62 60 58 58 56 57 58 62 63 63 66 66 66 66 66 66 66 65
69 69 69 68 69 72 72 72 72 71 71 71 71 70 70 70 71 71 71 71 71 71 71 71 71 71 71 71 71 71 71 71 71 70 69 70 70 70 69 68 69 68 68 70 70 70 70 70 70 70 70 70 70 69 69 69 68 69 68 66 66 66 65 65 65 64 63 59 60 60 59 57 57 59 63 63 62 65 64 64 65 65 64 64 63
69 68 69 68 69 72 72 72 71 71 71 71 71 71 71 71 70 70 71 71 71 71 71 71 70 70 70 70 71 70 71 71 70 70 69 69 70 70 70 69 68 68 69 70 70 70 71 70 70 70 70 69 69 69 68 68 68 68 68 66 66 66 65 64 64 62 61 60 60 59 59 58 58 59 61 63 63 64 63 63 64 64 64 63 63
68 69 69 69 70 72 72 72 71 71 71 71 71 71 71 71 70 70 70 71 71 71 71 71 70 70 70 70 70 71 71 70 70 70 69 69 70 69 70 70 70 69 69 69 70 70 70 70 70 69 69 68 68 68 69 69 68 68 68 67 67 66 65 64 63 61 59 59 57 58 61 61 57 57 59 61 61 61 63 63 63 63 63 63 63
69 68 69 68 70 72 72 72 72 71 71 71 71 72 72 72 71 70 70 71 71 71 71 70 70 70 71 70 71 71 70 70 70 69 69 70 69 69 68 69 70 70 68 69 70 70 70 69 69 69 68 69 69 69 69 69 69 69 68 68 67 66 65 63 61 59 60 59 60 61 61 63 60 61 63 63 62 62 61 61 61 62 62 63 63
68 69 69 69 72 72 72 71 71 71 71 71 72 72 72 72 72 72 71 71 71 71 71 71 71 71 71 71 70 70 70 70 71 71 70 70 69 68 68 68 68 70 69 69 70 69 69 68 68 68 69 69 69 69 69 69 69 69 69 68 67 66 65 63 60 61 61 59 59 61 58 57 58 59 62 62 62 64 64 63 63 63 62 62 62
68 68 69 70 71 72 71 71 71 71 71 71 72 72 71 71 71 71 71 71 71 71 71 71 71 71 71 70 70 70 71 71 72 71 70 70 69 70 69 69 69 69 69 69 69 69 69 68 69 69 69 69 69 69 69 69 70 69 68 67 67 65 65 63 60 61 60 60 60 59 58 60 61 62 64 64 64 64 64 63 63 63 63 63 63
68 68 69 69 69 72 71 71 71 71 71 72 71 71 71 71 71 71 71 71 71 71 71 71 71 71 71 71 71 72 72 72 71 72 71 71 71 70 70 70 69 69 69 69 69 69 69 68 68 68 69 69 69 69 69 69 69 69 68 67 67 66 65 64 62 60 59 58 61 59 60 62 60 62 62 62 62 62 61 61 61 61 61 61 61
68 69 70 70 69 71 72 71 71 71 71 71 71 70 70 71 71 71 71 71 71 71 71 71 71 71 70 71 71 72 72 72 71 71 71 70 70 70 70 70 70 69 69 69 68 69 68 68 68 69 69 69 69 69 69 69 69 68 68 68 67 66 63 59 59 59 59 59 60 59 58 59 64 63 62 61 62 62 62 62 62 61 61 62 62
70 69 69 70 70 70 70 72 72 71 71 71 71 71 71 71 71 71 71 71 71 71 71 71 71 70 71 71 70 71 71 71 71 71 71 70 70 70 70 70 69 69 68 68 68 68 69 69 69 69 69 69 69 69 68 68 68 68 68 68 67 67 64 61 60 60 60 60 60 60 59 60 63 61 62 63 62 62 61 61 61 62 61 61 61
69 69 69 69 71 70 70 70 71 71 71 71 71 71 71 71 71 71 71 71 71 71 71 71 71 70 71 71 70 70 70 70 70 70 70 70 70 70 70 70 70 69 69 68 68 68 69 69 69 69 69 69 69 69 68 68 68 68 68 68 67 67 66 63 60 61 60 59 59 59 60 60 62 62 62 62 62 62 62 62 62 61 61 61 60
69 69 69 69 70 70 71 70 71 72 72 72 71 71 71 71 71 71 71 71 71 71 71 71 71 71 71 71 71 70 70 70 70 70 70 70 70 69 70 70 69 69 69 69 68 68 69 69 69 69 69 69 69 69 69 68 69 68 68 68 68 67 66 64 62 61 61 62 60 60 60 63 63 62 62 63 62 62 62 62 62 61 61 61 61
69 69 69 69 70 71 70 70 71 70 71 71 71 70 71 71 71 71 71 71 71 71 71 71 71 71 71 71 70 70 70 70 70 70 70 70 70 69 69 69 69 69 69 68 69 68 68 69 69 69 69 69 69 69 69 69 69 68 68 68 68 67 66 64 62 61 62 62 62 61 61 65 63 63 63 62 62 63 61 60 62 61 61 61 61
69 69 69 70 70 70 70 69 70 70 71 71 70 70 71 72 72 71 71 71 71 71 70 70 70 70 70 70 70 70 70 70 70 70 70 70 70 69 69 69 69 69 68 68 68 68 68 68 69 69 68 69 69 70 69 69 68 68 68 68 67 67 65 64 62 60 61 62 63 60 62 63 63 63 62 62 63 63 63 62 61 61 63 62 62
69 69 69 69 69 69 69 69 70 70 70 70 70 70 71 71 71 72 71 71 71 70 70 70 70 70 70 69 69 70 72 70 70 70 70 70 70 70 69 69 68 68 69 68 68 69 68 68 68 68 68 69 69 70 69 69 68 68 68 68 67 65 64 64 63 62 61 62 63 60 64 64 63 63 63 63 63 63 62 62 63 62 63 62 62
67 68 68 69 68 69 68 69 69 70 70 70 70 71 71 70 70 70 72 71 71 70 70 71 70 70 69 70 71 70 70 70 70 69 70 70 69 69 69 69 69 69 69 68 68 68 68 68 68 67 67 67 68 69 69 68 68 68 68 67 64 64 65 65 64 61 62 63 63 64 65 65 63 64 65 63 62 62 62 62 62 63 62 62 61
67 67 68 68 68 68 69 69 69 70 70 70 70 70 71 71 70 70 71 71 71 71 70 69 68 68 69 70 71 71 72 71 71 70 70 68 69 69 69 69 69 69 68 68 68 68 67 68 68 67 67 67 66 68 67 66 67 68 67 65 65 64 65 65 63 63 61 62 63 65 65 65 65 64 65 65 64 63 64 64 64 63 62 63 62
66 66 67 68 68 68 68 68 68 70 69 70 70 71 72 72 71 71 70 70 71 70 70 69 68 69 70 71 71 71 71 71 68 69 69 68 69 69 68 68 68 68 68 67 68 68 68 67 67 66 64 64 65 65 65 66 66 67 66 64 64 64 64 64 61 62 62 62 61 65 65 66 64 65 65 66 66 65 63 62 62 62 63 61 61
66 66 67 68 68 68 68 69 69 69 70 70 71 71 72 71 70 71 70 72 70 70 70 70 70 70 70 70 70 70 70 69 70 69 68 67 68 68 68 68 68 67 66 64 64 64 64 63 64 63 64 64 64 66 66 66 66 65 65 64 64 65 64 64 62 61 63 64 65 68 67 67 65 66 66 67 66 65 64 64 62 61 61 62 62
67 66 66 68 68 69 69 68 69 69 70 70 70 70 71 70 70 70 70 69 69 69 69 69 70 70 70 70 70 70 70 70 70 67 66 67 67 67 66 67 66 65 66 66 65 65 63 61 61 61 62 64 65 66 67 67 65 65 63 64 63 65 64 62 62 63 64 64 65 68 68 68 67 67 67 67 65 64 64 63 63 62 62 62 62
66 66 67 68 69 69 69 69 69 70 70 70 70 70 70 70 70 70 68 68 70 69 69 69 69 69 70 70 70 71 70 69 69 67 66 66 66 66 66 66 66 66 67 66 66 66 64 63 62 63 64 63 63 65 66 65 65 63 63 61 62 63 64 63 62 63 64 64 65 68 69 68 68 67 67 66 65 65 64 63 63 63 62 61 60
66 66 67 69 69 68 69 69 69 70 70 70 70 70 70 70 69 70 69 69 70 69 69 70 70 70 70 70 69 68 68 68 67 66 65 66 66 67 67 66 66 66 67 67 64 64 64 64 64 62 62 62 62 64 64 64 64 64 62 62 63 64 64 63 63 64 64 64 64 68 69 68 68 67 66 66 66 65 64 65 64 63 63 62 62
64 66 67 69 68 68 69 68 68 68 69 70 69 70 70 70 70 69 70 69 68 69 70 69 70 70 70 69 69 69 68 68 67 67 66 66 67 67 66 65 66 67 67 66 65 64 64 63 64 62 64 64 64 64 63 64 65 64 62 62 62 63 64 64 64 63 63 63 64 68 68 68 67 67 65 64 63 64 65 65 65 64 62 62 62
64 66 67 68 68 69 68 68 68 68 69 69 68 68 69 69 68 69 70 69 69 68 69 69 70 70 70 69 69 68 69 68 68 67 66 67 66 66 66 66 66 66 67 66 67 65 65 63 64 63 62 63 62 65 64 64 63 64 63 62 64 63 64 64 64 63 63 64 63 66 68 67 68 67 67 63 62 65 65 65 65 63 63 62 62
66 65 66 69 69 68 68 68 68 68 68 68 68 68 68 68 68 69 68 68 69 67 67 66 68 69 69 69 69 69 68 68 67 66 66 66 66 66 66 66 66 66 68 68 68 67 66 64 63 64 65 64 64 65 65 65 64 62 64 62 64 65 65 65 64 63 62 63 62 64 65 68 68 69 68 66 64 65 65 65 65 64 64 63 63
66 65 67 68 68 68 68 68 68 68 68 67 67 66 66 68 68 68 68 68 67 67 66 66 68 69 69 69 70 69 68 67 67 67 66 67 67 66 66 66 66 68 67 67 67 67 66 66 65 67 67 67 66 66 67 66 65 62 63 63 63 64 64 64 64 64 62 62 62 65 66 66 68 68 68 69 68 66 65 65 64 64 64 64 64
66 66 66 67 67 67 68 67 68 67 66 66 66 66 67 67 67 67 67 67 67 68 67 66 67 68 68 68 69 68 68 67 67 66 67 67 67 66 66 66 66 67 67 67 66 65 66 66 67 68 67 67 66 66 66 66 65 64 64 63 64 63 64 63 64 64 63 65 64 64 65 64 64 67 67 67 67 67 66 65 65 65 65 65 65
67 67 66 67 67 67 67 67 67 66 66 67 65 66 67 66 67 68 68 68 67 68 68 67 67 67 67 67 67 66 66 67 66 67 67 68 68 67 66 66 66 66 66 67 66 65 66 66 66 66 66 66 65 64 65 65 64 64 64 64 65 65 66 64 64 65 66 66 67 65 64 64 63 64 64 66 66 66 66 65 66 66 66 65 64
67 66 65 66 67 67 67 67 66 65 66 66 66 66 66 67 67 66 68 67 67 66 67 67 67 67 67 67 66 66 65 66 67 67 67 68 67 66 66 66 66 66 66 66 66 66 66 65 66 65 66 64 64 64 64 64 64 64 64 65 65 65 65 65 65 65 66 66 67 67 68 67 67 66 65 64 65 65 65 65 65 65 65 65 65
67 66 66 66 66 66 66 66 65 65 65 65 66 66 67 66 67 67 67 67 68 66 67 66 66 66 66 67 66 66 66 66 66 67 67 66 66 65 66 66 66 66 66 65 65 65 66 66 66 67 65 64 63 63 63 63 63 63 64 64 64 65 65 64 65 65 66 67 65 66 67 67 67 67 66 67 66 65 65 65 65 65 64 65 65
65 66 66 66 65 65 66 66 65 64 65 65 65 65 66 66 66 66 66 67 66 66 66 66 65 66 66 66 67 66 65 66 66 66 66 65 65 66 66 66 66 66 66 65 65 66 65 65 66 67 66 63 63 63 63 63 63 63 64 63 64 65 64 64 65 65 66 65 65 65 66 66 66 64 66 65 66 66 66 66 66 65 65 65 65
65 66 66 66 65 65 66 65 65 65 65 66 65 66 65 66 66 66 67 66 66 65 65 65 66 66 66 67 67 67 66 66 66 66 67 65 65 66 65 65 66 66 66 65 65 65 66 66 65 66 64 63 63 63 63 62 61 60 62 63 63 64 63 63 64 65 65 64 64 64 64 66 65 65 64 64 64 65 64 64 64 63 63 63 64
66 66 65 66 65 65 65 65 64 64 65 64 64 65 65 65 66 66 66 66 66 66 65 64 65 66 66 67 68 68 67 66 66 66 66 66 65 65 65 65 66 66 65 64 64 64 64 65 65 64 64 64 63 64 63 62 61 61 61 63 62 63 63 62 62 62 63 63 63 62 63 64 64 64 64 64 65 64 63 63 62 62 61 61 62
66 66 66 66 65 65 65 65 64 65 65 64 64 64 64 64 63 64 65 65 65 65 65 65 66 66 66 66 66 68 67 67 66 66 66 66 65 65 65 65 65 65 64 64 64 64 63 63 63 63 63 63 64 64 64 63 62 62 62 63 64 64 63 64 64 64 64 64 63 63 63 63 64 64 64 64 64 63 63 63 63 61 59 58 60
65 65 65 65 65 64 65 64 65 64 64 64 64 63 62 63 63 63 64 64 64 64 64 65 65 65 66 65 67 67 67 67 66 66 66 65 65 66 65 65 65 64 64 65 64 64 64 64 63 63 62 62 62 63 63 65 61 59 60 62 62 63 63 63 63 63 62 63 63 63 63 63 63 63 63 63 62 63 63 61 61 60 59 59 60
64 65 64 65 65 65 65 64 64 65 65 65 63 64 63 62 62 62 63 63 63 64 64 65 65 66 66 66 67 66 67 66 66 66 66 66 65 65 65 65 65 64 65 65 64 63 64 64 63 62 63 62 62 63 63 64 59 58 57 57 59 59 60 61 61 61 62 62 62 62 63 62 62 64 63 62 61 59 59 59 59 58 59 59 61
64 64 65 65 64 65 65 64 64 64 64 65 65 64 65 65 64 63 63 62 63 64 63 64 65 65 66 67 67 67 66 66 66 66 66 66 65 65 65 65 65 64 64 64 64 63 64 63 63 62 62 63 62 63 64 65 59 59 59 57 55 56 58 59 60 60 61 62 61 61 61 61 61 61 62 61 61 59 54 55 56 57 59 60 61
63 64 64 64 64 64 65 64 64 64 64 64 64 65 65 65 65 64 64 63 62 64 65 66 66 65 65 66 66 66 66 66 65 65 65 65 65 65 65 65 65 65 64 64 63 63 64 63 63 63 62 60 60 61 63 64 62 58 58 56 56 55 53 55 57 58 60 60 60 60 61 61 61 61 61 60 58 55 52 51 54 57 59 60 61
63 63 64 64 64 64 64 64 64 64 64 64 64 64 64 64 64 64 64 64 64 64 64 64 65 65 65 66 66 66 66 65 66 65 65 65 65 65 64 65 65 65 64 63 63 63 63 63 64 63 63 61 60 62 62 64 63 63 58 55 54 55 54 54 56 56 58 58 58 59 61 60 60 60 59 57 54 51 49 49 54 56 58 58 60
63 63 64 64 64 64 64 64 64 64 64 64 64 64 64 63 63 62 61 62 62 62 62 63 63 64 64 65 65 65 65 66 66 65 65 65 65 65 65 64 65 65 64 64 63 63 63 63 64 65 65 65 62 61 62 63 64 63 63 63 61 54 53 55 54 52 58 59 58 58 59 60 61 60 58 54 49 47 49 50 54 55 56 57 58
63 64 64 64 64 64 64 64 63 64 63 63 63 64 63 63 63 63 63 63 61 63 64 64 64 64 64 64 65 65 65 65 65 65 65 65 65 64 64 64 64 65 64 64 64 64 62 62 63 64 63 63 64 62 62 61 62 63 63 64 64 61 57 54 53 54 53 55 57 58 59 59 59 58 55 50 48 49 51 50 53 53 54 56 57
63 64 63 64 64 64 64 63 63 63 63 63 64 64 63 63 63 63 63 63 63 62 64 64 64 64 64 64 64 64 65 65 65 64 65 65 65 64 64 64 64 64 64 63 64 63 63 62 64 64 65 65 64 63 63 62 60 61 62 63 61 60 59 58 56 54 53 52 53 57 58 59 58 57 54 51 48 51 53 51 47 48 50 50 52
62 62 63 63 63 64 63 63 63 63 63 63 64 64 64 63 63 63 64 64 64 63 63 64 64 64 63 63 64 63 64 64 65 65 64 64 64 64 64 64 64 64 63 64 64 63 64 64 63 64 64 63 64 65 64 63 62 63 61 60 58 56 56 59 59 56 53 52 52 54 55 58 57 57 56 51 48 50 49 49 46 45 48 50 49
62 62 63 63 63 63 63 62 62 63 63 63 64 64 64 63 64 64 64 63 63 64 63 63 64 64 64 64 63 63 63 64 65 64 64 63 64 64 64 64 65 64 63 64 63 63 63 64 64 64 64 64 64 63 62 62 62 63 62 60 57 56 55 56 57 57 55 54 51 51 54 54 53 55 56 50 46 46 44 47 47 42 45 46 46
62 62 62 62 62 62 62 62 62 62 63 63 64 64 64 64 64 64 64 63 64 64 63 63 62 63 62 62 62 62 62 63 63 63 64 63 64 64 64 64 65 65 64 63 64 63 64 64 64 64 64 63 63 63 62 63 63 62 60 58 57 55 55 54 55 55 55 55 53 52 53 51 52 53 53 48 44 40 40 45 44 43 45 45 45